Terminal Aerodrome Forecast
Issued by NWS

Home | Current Version | Previous Version | Text Only | Print | Product List | Glossary On
Versions: 1 2 3 4 5 6 7 8 9 10 11 12 13 14 15 16 17 18 19 20 21 22 23
000
FTUS45 KRIW 010534
TAFPNA
TAF
KPNA 010534Z 0106/0206 30006KT P6SM SKC
     FM011900 25012KT P6SM SCT080
     FM012130 25012G22KT P6SM VCTS SCT080CB BKN120
     FM020200 28008KT P6SM SCT120
      AMD LTD TO CLD VIS AND WIND=

USA.gov is the U.S. government's official web portal to all federal, state and local government web resources and services.